Hollywood, FL

4:51 PM EDT on May 25, 2017 (GMT -0400)
North Perry

Weather History for KHWO - December, 2012

Change the Weather History Date:

Saturday, December 15, 2012

  Actual Average (KFLL) Record (KFLL)
Temperature  
Mean Temperature 71 °F -  
Max Temperature 78 °F 77 °F 87 °F (1963)
Min Temperature 64 °F 62 °F 37 °F (2010)
Cooling Degree Days 6    
Growing Degree Days 21 (Base 50)    
Moisture  
Dew Point 65 °F    
Average Humidity 82    
Maximum Humidity 100    
Minimum Humidity 65    
Precipitation  
Precipitation 0.22 in - - ()
Sea Level Pressure  
Sea Level Pressure 30.08 in    
Wind  
Wind Speed 5 mph (ENE)    
Max Wind Speed 15 mph    
Max Gust Speed 23 mph    
Visibility 10 miles    
Events Rain    
Averages and records for this station are not official NWS values.
T = Trace of Precipitation, MM = Missing Value Source: NWS Daily Summary

Daily Weather History Graph

Daily Weather History Graph

Search for Another Location

Airport or City:

Trip Planner

Search our weather history database for the weather conditions in past years. The results will help you decide how hot, cold, wet, or windy it might be!

Date:

Astronomy

Dec. 15, 2012 Rise Set
Actual Time 7:00 AM EST 5:32 PM EST
Civil Twilight 6:35 AM EST 5:57 PM EST
Nautical Twilight 6:06 AM EST 6:26 PM EST
Astronomical Twilight 5:38 AM EST 6:54 PM EST
Moon 9:01 AM EST (12/15) 8:22 PM EST (12/15)
Length of Visible Light 11h 21m
Length of Day
10h 31m
Waxing Crescent, 8% of the Moon is Illuminated
Dec 15
Waxing Crescent
Dec 20
First Quarter
Dec 28
Full
Jan 4
Last Quarter
Jan 11
New

Hourly Weather History & Observations

Time (EST) Temp. Dew Point Humidity Pressure Visibility Wind Dir Wind Speed Gust Speed Precip Events Conditions
12:53 AM 66.0 °F 64.0 °F 93% 30.08 in 10.0 mi North 3.5 mph - N/A   Partly Cloudy
1:15 AM 66.2 °F 64.4 °F 94% 30.07 in 10.0 mi Calm Calm - 0.00 in Rain Light Rain
1:34 AM 66.2 °F 64.4 °F 94% 30.07 in 10.0 mi NNW 4.6 mph - 0.00 in   Scattered Clouds
1:53 AM 66.0 °F 64.0 °F 93% 30.06 in 10.0 mi NNW 4.6 mph - 0.00 in   Partly Cloudy
2:53 AM 64.9 °F 64.0 °F 97% 30.05 in 10.0 mi NW 4.6 mph - N/A   Partly Cloudy
3:53 AM 64.9 °F 64.0 °F 97% 30.05 in 10.0 mi NNW 3.5 mph - 0.00 in   Scattered Clouds
4:53 AM 64.9 °F 64.0 °F 97% 30.05 in 10.0 mi NNW 4.6 mph - N/A   Mostly Cloudy
5:48 AM 66.2 °F 64.4 °F 94% 30.07 in 10.0 mi NNE 4.6 mph - 0.02 in Rain Light Rain
5:53 AM 66.9 °F 66.0 °F 97% 30.07 in 10.0 mi Calm Calm - 0.02 in Rain Light Rain
6:04 AM 66.2 °F 66.2 °F 100% 30.07 in 10.0 mi Calm Calm - 0.00 in   Overcast
6:53 AM 68.0 °F 66.0 °F 93% 30.08 in 10.0 mi Calm Calm - 0.01 in Rain Light Rain
7:53 AM 68.0 °F 66.0 °F 93% 30.10 in 10.0 mi Calm Calm - 0.00 in   Overcast
8:36 AM 69.8 °F 66.2 °F 88% 30.11 in 10.0 mi WSW 5.8 mph - N/A   Mostly Cloudy
8:53 AM 69.1 °F 66.9 °F 93% 30.11 in 10.0 mi WNW 5.8 mph - N/A   Overcast
9:33 AM 75.2 °F 66.2 °F 73% 30.11 in 10.0 mi ENE 15.0 mph - 0.00 in   Scattered Clouds
9:53 AM 75.0 °F 64.9 °F 71% 30.12 in 10.0 mi ENE 13.8 mph - 0.00 in   Partly Cloudy
10:37 AM 78.8 °F 66.2 °F 65% 30.12 in 10.0 mi ENE 15.0 mph 20.7 mph N/A   Mostly Cloudy
10:45 AM 77.0 °F 64.4 °F 65% 30.12 in 10.0 mi ENE 12.7 mph - N/A   Mostly Cloudy
10:53 AM 75.9 °F 64.0 °F 67% 30.12 in 10.0 mi ENE 15.0 mph - N/A   Scattered Clouds
11:53 AM 77.0 °F 64.9 °F 66% 30.09 in 10.0 mi ENE 12.7 mph 23.0 mph N/A   Overcast
12:21 PM 75.2 °F 66.2 °F 73% 30.08 in 10.0 mi East 12.7 mph - N/A   Overcast
12:33 PM 71.6 °F 66.2 °F 83% 30.09 in 10.0 mi East 9.2 mph 19.6 mph 0.03 in Rain Heavy Rain
12:53 PM 73.0 °F 68.0 °F 84% 30.08 in 10.0 mi East 6.9 mph - 0.03 in   Overcast
1:53 PM 71.1 °F 66.9 °F 87% 30.07 in 10.0 mi SE 4.6 mph - 0.05 in Rain Rain
2:53 PM 73.0 °F 68.0 °F 84% 30.06 in 10.0 mi ENE 6.9 mph - 0.11 in   Overcast
3:53 PM 73.9 °F 64.9 °F 73% 30.05 in 10.0 mi East 5.8 mph - N/A   Overcast
4:53 PM 73.9 °F 64.9 °F 73% 30.05 in 10.0 mi ENE 6.9 mph - N/A   Overcast
5:53 PM 73.0 °F 64.0 °F 73% 30.06 in 10.0 mi ENE 4.6 mph - N/A   Overcast
6:53 PM 73.9 °F 64.9 °F 73% 30.07 in 10.0 mi ENE 9.2 mph - 0.00 in   Overcast
7:53 PM 73.0 °F 64.0 °F 73% 30.09 in 10.0 mi ENE 5.8 mph - N/A   Overcast
8:23 PM 73.4 °F 64.4 °F 73% 30.09 in 10.0 mi ESE 6.9 mph - N/A   Overcast
8:42 PM 71.6 °F 64.4 °F 78% 30.09 in 10.0 mi SE 5.8 mph - N/A   Overcast
8:53 PM 72.0 °F 64.9 °F 78% 30.09 in 10.0 mi SE 4.6 mph - N/A   Overcast
9:53 PM 73.0 °F 64.0 °F 73% 30.09 in 10.0 mi East 8.1 mph - N/A   Mostly Cloudy
10:53 PM 72.0 °F 63.0 °F 73% 30.07 in 10.0 mi East 8.1 mph - N/A   Partly Cloudy
11:53 PM 71.1 °F 63.0 °F 75% 30.07 in 10.0 mi East 3.5 mph - N/A   Clear